Simultaneous Nadir Overpasses (SNOs) Predictions

Prediction of SNOs between FY3D and TERRA Satellite Orbit:

Table of predicted SNOs for the next 14.0 days since TLE Epoch: 1/13/2024
Index Date (FY3D) Time (FY3D) Lat,Lon (FY3D) SZA (FY3D ) Date (TERRA) Time (TERRA) Lat,Lon (TERRA) SZA (TERRA ) Distance(km) Time Diff (sec)
1 01/14/2024 14:49:13 -74.99, 137.21 83.77 01/14/2024 14:50:25 -74.87, 137.79 83.89 20.96 72
2 01/14/2024 15:39:55 74.78, -54.90 96.03 01/14/2024 15:39:48 74.77, -54.81 96.01 3.37 7
3 01/14/2024 16:30:28 -74.22, 113.96 84.57 01/14/2024 16:29:20 -74.27, 111.67 84.49 69.46 68
4 01/17/2024 02:53:03 74.82, 136.75 95.61 01/17/2024 02:53:43 74.81, 136.77 95.59 2.00 40
5 01/17/2024 03:43:46 -74.73, -55.67 84.50 01/17/2024 03:43:07 -74.73, -55.76 84.50 2.66 39
6 01/19/2024 14:06:22 75.39, -33.18 95.71 01/19/2024 14:07:28 75.32, -30.41 95.60 78.29 66
7 01/19/2024 14:56:55 -74.82, 135.84 84.90 01/19/2024 14:57:01 -74.79, 135.89 84.93 2.93 6
8 01/19/2024 15:47:36 74.58, -56.18 94.85 01/19/2024 15:46:24 74.67, -56.76 94.95 19.83 72
9 01/22/2024 02:10:03 -74.87, -32.53 85.39 01/22/2024 02:10:54 -74.88, -32.42 85.38 3.54 51
10 01/22/2024 03:00:47 74.78, 135.03 94.52 01/22/2024 03:00:16 74.80, 135.05 94.54 2.08 31
11 01/24/2024 14:13:55 74.84, -33.38 94.01 01/24/2024 14:14:09 74.84, -33.36 94.01 0.78 14
12 01/24/2024 15:04:39 -74.78, 134.11 86.07 01/24/2024 15:03:33 -74.78, 134.16 86.06 1.61 66
13 01/27/2024 01:27:03 74.91, 158.18 93.48 01/27/2024 01:28:01 74.90, 158.29 93.46 3.48 58
14 01/27/2024 02:17:46 -74.80, -34.18 86.66 01/27/2024 02:17:26 -74.80, -34.31 86.66 3.65 20



Historial Predications of SNOs between FY3D and TERRA
